Tracking 17145 objects as of 23-May-2015
HD Live streaming from Space Station

COSMOS 2251 DEB

Track COSMOS 2251 DEB now!
10-day predictions
COSMOS 2251 DEB is classified as:


NORAD ID: 38196
Int'l Code: 1993-036BSL
Perigee: 630.7 km
Apogee: 937.3 km
Inclination: 73.9 °
Period: 100.4 minutes
Semi major axis: 7155 km
RCS: 0.0033 m2 (small)
Launch date: June 16, 1993
Source: Commonwealth of Independent States (former USSR) (CIS)

Note: This is SATELLITE DEBRIS
Your satellite tracking list
Your tracking list is empty





NASA's NSSDC Master Catalog

Two Line Element Set (TLE):
1 38196U 93036BSL 15142.90191120  .00005701  00000-0  15686-2 0  9995
2 38196 073.8933 216.9753 0214239 122.4338 359.2853 14.34457198219787

Source of the keplerian elements: AFSPC

N2YO: 365